Voltar ao catálogo

STARLINK-32511

AtivoComunicaçõesVLEO
NORAD 61727·PAYLOAD·🇺🇸 United States

Lançado Oct 30, 2024 de Cape Canaveral Space Force Station

Loading…

Próximas Passagens (próximas 24 horas)

TLE

AtualizadoSource: CelesTrak SupGP

Época: Sep 15, 2026, 03:26 UTC

1 61727C 24196W   26258.14354167 -.00012443  00000+0 -36776-3 0  2584
2 61727  53.1582 298.5809 0001312  95.0261 199.6233 15.34385492    18

Acompanhe STARLINK-32511 em tempo real com AllMySat

Download on the App Store